Regional Weather Roundup
Issued by NWS Cleveland, OH

Home | Current Version | Previous Version | Text Only | Print | Product List | Glossary On
Versions: 1 2 3 4 5 6 7 8 9 10 11 12 13 14 15 16 17 18 19 20 21 22 23 24 25 26 27 28 29 30 31 32 33 34 35 36 37 38 39 40 41 42 43 44 45 46 47 48 49 50
000
ASUS41 KCLE 190110
RWRCLE
OHIO REGIONAL WEATHER ROUNDUP
NATIONAL WEATHER SERVICE CLEVELAND, OH
800 PM EST THU DEC 18 2014

NOTE: "FAIR" INDICATES FEW OR NO CLOUDS BELOW 12,000 FEET WITH NO
SIGNIFICANT WEATHER AND/OR OBSTRUCTIONS TO VISIBILITY.

OHZ001>008-015>018-024>027-034-035-043-044-190200-
   NORTHWEST OHIO

CITY           SKY/WX    TMP DP  RH WIND       PRES   REMARKS
DEFIANCE       CLOUDY    29  24  82 W7        30.22S WCI  22
FINDLAY        CLOUDY    29  25  85 W7        30.20R WCI  22
TOLEDO EXPRESS CLOUDY    30  25  80 W8        30.20R WCI  23
TOLEDO EXEC    CLOUDY    31  25  78 W10       30.20S WCI  22
LIMA           CLOUDY    30  23  75 NW6       30.20S WCI  24
$$

OHZ009>014-019>023-028>033-038-089-190200-
   NORTHEAST OHIO

CITY           SKY/WX    TMP DP  RH WIND       PRES   REMARKS
CLE-HOPKINS    LGT SNOW  29  26  89 SW7       30.19F FOG     WCI  22
CLE-LAKEFRONT  CLOUDY    31  26  82 SW10      30.17S WCI  22
CUY CO. ARPT   CLOUDY    32  28  86 W12       30.16S WCI  23
LORAIN-ELYRIA  CLOUDY    29  26  89 W8        30.18S WCI  21
ASHTABULA      CLOUDY    31  27  85 NW3       30.14F
AKRON-CANTON   FLURRIES  28  23  81 W6        30.15F WCI  22
WOOSTER        FLURRIES  27  24  89 W6        30.17S WCI  20
MANSFIELD      CLOUDY    27  24  89 W6        30.16S WCI  20
YOUNGSTOWN     FLURRIES  28  24  85 W8        30.13F WCI  20
$$

OHZ042-051>053-060>062-070>072-077>081-190200-
  SOUTHWEST OHIO

CITY           SKY/WX    TMP DP  RH WIND       PRES   REMARKS
CINC-COVINGTON CLOUDY    28  20  71 W3        30.22S
CINC-LUNKEN    CLOUDY    30  20  66 CALM      30.26R
HAMILTON       CLOUDY    29  22  75 NW6       30.25R WCI  23
DAYTON         CLOUDY    28  22  78 NW5       30.22R WCI  23
WRIGHT-PAT AFB CLOUDY    28  22  77 NW6       30.22R WCI  22
DAYTON GENERAL CLOUDY    28  21  75 W3        30.21R
WILMINGTON     CLOUDY    27  19  72 NW5       30.20S WCI  22
$$

OHZ036-037-039>041-045>050-054>059-063>069-073>076-082>088-190200-
  CENTRAL AND SOUTHEAST OHIO

CITY           SKY/WX    TMP DP  RH WIND       PRES   REMARKS
COLUMBUS       CLOUDY    28  21  75 W6        30.21R WCI  22
OSU AIRPORT    CLOUDY    28  22  78 W6        30.20S WCI  22
BOLTON FIELD   CLOUDY    28  23  83 MISG      30.21S
RICKENBACK AFB CLOUDY    28  22  78 W5        30.21S WCI  23
NEWARK         CLOUDY    29  22  75 SW5       30.20R WCI  24
MARION         CLOUDY    28  22  78 W8        30.20R WCI  20
LANCASTER      CLOUDY    29  22  75 W3        30.21R
ZANESVILLE     CLOUDY    26  23  88 CALM      30.20S FOG
NEW PHILLY     CLOUDY    29  22  75 CALM      30.19S
$$



USA.gov is the U.S. government's official web portal to all federal, state and local government web resources and services.